Location: Oshawa
(43.9000°N, 78.8670°W)
Time: 05:05:27
(UTC-04:00)

Altair - Visible Passes

Search period start: 28 August 2014 00:00
Search period end: 07 September 2014 00:00
Orbit: 1502 x 1682 km, 47.2° (Epoch: 25 August)

Date Brightness Start Highest point End Pass type
(mag) Time Alt. Az. Time Alt. Az. Time Alt. Az.
28 Aug 7.3 01:12:53 10° WNW 01:21:56 85° NW 01:21:56 85° NW visible
28 Aug 8.9 03:17:54 10° WNW 03:19:51 17° WNW 03:19:51 17° WNW visible
28 Aug 7.5 20:37:21 10° SW 20:46:56 73° SSE 20:56:12 10° ENE visible
28 Aug 7.5 22:42:22 10° W 22:51:52 74° N 22:59:10 18° ENE visible
29 Aug 7.3 00:47:43 10° WNW 00:57:05 86° NNE 00:57:06 86° NNE visible
29 Aug 8.8 02:52:43 10° WNW 02:55:03 19° WNW 02:55:03 19° WNW visible
29 Aug 7.6 20:12:14 10° SW 20:21:49 70° SSE 20:31:04 10° ENE visible
29 Aug 7.6 22:17:09 10° W 22:26:41 75° N 22:34:32 16° ENE visible
30 Aug 7.3 00:22:33 10° WNW 00:31:56 83° NNE 00:32:30 79° ENE visible
30 Aug 8.7 02:27:32 10° WNW 02:30:27 22° WNW 02:30:27 22° WNW visible
30 Aug 7.6 21:51:56 10° W 22:01:30 76° N 22:10:03 13° ENE visible
30 Aug 7.3 23:57:22 10° WNW 00:06:47 81° NNE 00:08:01 70° E visible
31 Aug 8.6 02:02:21 10° WNW 02:05:59 26° W 02:05:59 26° W visible
31 Aug 7.6 21:26:43 10° W 21:36:20 77° N 21:45:38 10° ENE visible
31 Aug 7.4 23:32:10 10° WNW 23:41:38 79° NNE 23:43:37 60° E visible
01 Sep 8.4 01:37:11 10° WNW 01:41:35 31° W 01:41:35 31° W visible
01 Sep 7.6 21:01:29 10° W 21:11:09 79° NNW 21:20:29 10° ENE visible
01 Sep 7.4 23:06:59 10° WNW 23:16:28 78° NNE 23:19:17 50° E visible
02 Sep 8.2 01:12:00 10° WNW 01:17:16 37° W 01:17:16 37° W visible
02 Sep 7.6 20:36:16 10° WSW 20:45:59 81° NNW 20:55:21 10° ENE visible
02 Sep 7.5 22:41:47 10° WNW 22:51:18 76° N 22:55:00 42° E visible
03 Sep 8.0 00:46:50 10° WNW 00:52:59 45° W 00:52:59 45° W visible
03 Sep 7.7 20:11:03 10° WSW 20:20:49 83° NNW 20:30:12 10° ENE visible
03 Sep 7.5 22:16:34 10° WNW 22:26:07 75° N 22:30:45 34° E visible
04 Sep 7.7 00:21:40 10° WNW 00:28:44 54° W 00:28:44 54° W visible
04 Sep 7.5 21:51:21 10° W 22:00:56 74° N 22:06:33 28° E visible
04 Sep 7.5 23:56:30 10° WNW 00:04:32 64° WSW 00:04:32 64° WSW visible
05 Sep 9.4 02:02:09 10° W 02:02:31 11° W 02:02:31 11° W visible
05 Sep 7.6 21:26:08 10° W 21:35:45 73° N 21:42:23 22° E visible
05 Sep 7.3 23:31:19 10° WNW 23:40:22 75° SW 23:40:22 75° SW visible
06 Sep 9.2 01:36:50 10° WNW 01:38:21 15° W 01:38:21 15° W visible
06 Sep 7.6 21:00:55 10° W 21:10:34 73° N 21:18:14 17° E visible
06 Sep 7.2 23:06:09 10° WNW 23:15:36 79° SSW 23:16:13 76° SSE visible
